GFSSE_con_lsi_132.txt.gz
Lid_Strength_Index
0 -1 -1 -1 -1 -2 -2 -2 -2 -2 -2 -2 -2 -2 -2 -2 -2 -3 -2 -2 -2 -2 -2 -2 -2 -2 -2 -2 -2 -2 -2 -2 -2 -2 -2 -2 -2 -2 -2 -2 -2 -1 -2
-1 -1 -1 -1 -1 -2 -2 -2 -2 -2 -2 -2 -2 -2 -2 -2 -2 -2 -2 -2 -2 -2 -2 -2 -2 -2 -2 -2 -2 -2 -2 -2 -2 -2 -2 -2 -2 -2 -2 -2 -2 -2 -2
-1 -1 -1 -2 -2 -2 -2 -2 -2 -2 -2 -2 -2 -2 -2 -2 -2 -2 -2 -2 -2 -2 -2 -2 -2 -2 -2 -2 -2 -2 -2 -2 -2 -2 -2 -1 -1 -2 -2 -2 -2 -2 -2
-1 -1 -1 -1 -2 -2 -2 -2 -2 -2 -3 -2 -2 -2 -2 -2 -2 -2 -2 -2 -2 -2 -2 -2 -2 -2 -2 -2 -2 -2 -2 -2 -2 -2 -1 -1 -1 -2 -2 -2 -2 -2 -2
-1 -1 -1 -1 -2 -2 -2 -2 -2 -2 -2 -2 -2 -2 -2 -2 -2 -2 -2 -2 -2 -2 -2 -2 -2 -2 -2 -2 -2 -2 -2 -2 -2 -2 -1 -1 -2 -2 -2 -2 -2 -2 -1
-1 -1 -1 -1 -2 -2 -2 -2 -2 -2 -2 -2 -2 -2 -2 -2 -2 -2 -2 -2 -2 -2 -2 -2 -2 -2 -2 -2 -2 -2 -2 -2 -2 -2 -2 -1 -1 -2 -2 -2 -1 -1 -1
-1 -1 -1 -1 -1 -2 -2 -2 -2 -2 -2 -2 -2 -2 -2 -2 -2 -2 -2 -2 -2 -2 -2 -2 -2 -2 -2 -2 -2 -2 -1 -1 -2 -2 -1 -1 -2 -2 -2 -2 -1 -1 -1
-1 -1 -1 0 -1 -1 -1 -2 -2 -2 -2 -2 -2 -2 -2 -2 -2 -2 -2 -2 -2 -2 -2 -2 -2 -2 -2 -2 -2 -2 -2 -2 -1 -1 -1 -1 -2 -2 -2 -1 -1 -1 -0
-1 -1 -1 -1 -1 0 -1 -1 -1 -2 -2 -2 -2 -2 -2 -2 -2 -2 -2 -2 -2 -2 -2 -2 -2 -2 -2 -2 -2 -1 -1 -1 -2 -1 -1 -1 -3 -2 -2 -1 -1 -0 -0
-1 -1 -1 -1 -1 -1 -2 1 -0 -1 -2 -2 -2 -1 -1 -1 -1 -1 -2 -2 -2 -2 -2 -2 -2 -2 -2 -2 -1 -1 -1 -2 -2 -1 -1 -2 -2 -2 -1 -1 -1 -0 -0
0 -0 -1 -1 -1 -1 -1 -0 0 -0 -1 -1 -1 0 0 -1 -1 -1 -0 -2 -2 -2 -2 -2 -2 -2 -2 -2 -1 -1 -1 -1 -1 -2 -1 -2 -2 -1 -1 -0 0 0 1
1 0 -1 -1 -1 -1 -1 -1 -2 -1 -2 -1 -1 -1 -1 -1 -1 -1 0 0 -1 -1 -2 -1 -2 -1 -1 -2 -2 -1 -2 -1 -1 -1 -1 -2 -1 -1 -0 0 1 1 1
1 0 -0 -1 -1 -1 -1 -1 -1 -1 -2 -2 -1 -1 -1 -1 -1 -1 -1 -0 -1 1 -1 -1 -1 -2 -1 -2 -2 -2 -2 -2 -1 -1 -0 -1 -1 -0 0 1 1 1 1
1 1 -0 -1 -1 -1 -1 -1 -1 -1 -1 -1 -1 -1 -1 -1 -1 -1 -0 -0 -0 -0 -1 -1 -2 -2 -1 -1 -1 -1 -1 -1 -1 -0 0 0 -0 -0 0 1 1 1 2
1 1 0 -1 -1 -1 -1 -1 -1 -1 -1 -1 -1 -1 -1 -0 -0 -0 -0 -0 0 -0 -1 -1 -1 -1 -1 -1 -1 -1 -1 -1 -0 1 0 1 -1 0 1 1 2 2 2
1 1 0 -0 -1 -1 -1 -1 -1 -1 -1 -1 -1 -1 -1 -1 -0 0 0 0 0 -0 -1 -1 -1 -1 -1 -1 -1 -1 -1 -1 -0 2 1 1 1 0 1 2 2 2 2
1 0 0 0 -1 -1 -1 -1 -1 -1 -1 -1 -1 -1 -1 -1 -0 0 0 0 0 -0 -1 -1 -1 -1 -1 -1 -1 -1 -1 -1 1 2 2 2 2 2 1 2 2 2 2
1 1 0 0 0 -0 -1 -1 -1 -1 -1 -1 -1 -1 -1 -1 -1 0 0 -0 -0 -1 -1 -1 -1 -0 -0 -0 -0 -1 -1 1 1 3 3 2 1 1 2 2 2 2 2
1 1 1 0 0 -0 -1 -1 -1 -1 -1 -1 -1 -1 -1 -1 -1 -1 -1 -0 -1 -1 -1 -1 -0 -0 0 0 0 -0 -0 1 1 2 2 2 2 2 2 3 3 3 3
1 0 0 0 0 -0 -0 -1 -1 -0 -1 -1 -1 -1 -1 -0 -1 -1 -1 -1 -1 -1 -0 -0 -0 -0 -0 0 1 2 1 1 1 1 2 2 3 3 3 4 4 5 5
1 1 1 1 0 0 0 1 1 1 0 -0 -1 -1 -1 -0 -1 -1 -1 -1 -1 -0 -0 -0 -0 0 1 -0 3 3 3 3 2 2 2 3 3 4 4 4 4 5 5
1 1 1 1 1 0 0 0 0 0 0 -0 -0 -0 -0 -1 -1 -1 -1 -1 -1 -0 -0 -0 0 1 1 0 3 3 4 4 4 3 2 3 3 3 5 5 5 6 6
2 1 1 1 1 0 0 0 0 0 0 1 0 0 0 0 -0 -0 -0 -1 -1 -1 0 0 0 1 2 1 1 3 6 6 3 3 4 4 3 3 4 5 6 7 7
2 1 1 1 1 0 0 1 1 2 2 1 1 0 0 1 0 -0 -0 -1 -1 -1 -0 -0 -0 0 1 2 1 2 2 2 5 5 3 4 4 4 4 5 6 7 8
2 1 1 1 1 0 0 0 1 2 1 1 1 1 0 0 0 0 0 -0 -0 -0 -0 -0 -0 0 0 1 2 2 1 2 3 4 5 3 4 4 5 5 6 8 10
2 2 1 1 1 1 1 1 1 1 1 2 1 1 1 0 0 0 0 0 0 0 0 -0 -0 -0 0 0 1 1 2 3 3 3 5 4 4 3 7 8 8 10 12

GFSSE_con_lsi_138.txt.gz
Lid_Strength_Index
1 -0 -1 -1 -1 -2 -2 -2 -2 -2 -2 -2 -2 -2 -2 -2 -2 -3 -2 -2 -2 -2 -2 -2 -2 -2 -2 -2 -2 -2 -2 -2 -2 -2 -2 -2 -2 -2 -2 -2 -2 -1 -2
0 -1 -1 -1 -1 -1 -2 -2 -2 -2 -2 -2 -1 -2 -2 -2 -2 -2 -2 -2 -2 -2 -2 -2 -2 -2 -2 -2 -2 -2 -2 -2 -2 -2 -1 -2 -2 -2 -2 -2 -2 -1 -2
0 -1 -1 -1 -2 -2 -2 -2 -2 -2 -2 -2 -2 -2 -2 -2 -2 -2 -2 -2 -2 -2 -2 -2 -2 -2 -2 -2 -2 -2 -2 -1 -2 -2 -2 -1 -1 -2 -2 -2 -2 -2 -2
-0 -0 -1 -1 -2 -2 -2 -2 -2 -2 -2 -2 -2 -2 -2 -2 -2 -2 -2 -2 -2 -2 -2 -2 -2 -2 -2 -2 -2 -2 -2 -1 -1 -1 -1 -1 -1 -2 -2 -2 -2 -2 -2
0 -1 -1 -1 -2 -2 -2 -2 -2 -2 -2 -2 -2 -2 -2 -2 -2 -2 -2 -3 -2 -2 -2 -2 -2 -2 -2 -2 -2 -2 -2 -2 -2 -1 -1 -1 -1 -2 -2 -2 -1 -1 -1
-0 -0 -1 -1 -2 -2 -2 -2 -2 -3 -2 -2 -2 -2 -2 -2 -2 -2 -2 -3 -2 -2 -2 -2 -2 -2 -2 -2 -2 -2 -2 -2 -2 -1 -1 -1 -1 -2 -2 -2 -1 -1 -1
0 -0 -1 -1 -1 -2 -2 -2 -2 -2 -2 -2 -2 -2 -2 -2 -2 -2 -3 -2 -2 -2 -2 -2 -2 -2 -2 -2 -2 -2 -2 -2 -1 -1 -0 -1 -1 -2 -2 -1 -1 -1 -1
0 -0 -1 0 -1 -1 -1 -2 -2 -2 -2 -2 -2 -2 -2 -1 -2 -2 -2 -2 -2 -2 -2 -2 -2 -2 -2 -2 -2 -2 -2 -1 -1 -1 -0 -0 -2 -2 -1 -1 -1 -1 -1
-0 -0 -0 -0 -0 0 -1 -1 -2 -2 -2 -2 -3 -2 -2 -2 -2 -2 -2 -2 -2 -2 -2 -1 -1 -1 -1 -2 -2 -2 -1 -1 -0 -0 -1 -1 -2 -2 -1 -1 -1 -0 -0
1 1 0 -0 -0 -0 -0 0 -0 -1 -2 -2 -2 -2 -1 -1 -1 -1 -1 -1 -2 -2 -1 -1 -1 -1 -1 -1 -1 -1 -1 -1 -1 -1 -0 -0 -2 -1 -1 -1 -0 -0 0
1 1 1 0 0 -0 -0 1 1 -0 -1 -1 -0 0 1 0 1 1 -0 -1 -2 -2 -1 -1 -1 -2 -1 -1 -1 -0 -0 1 -0 -0 1 -2 -2 -1 -0 -0 -0 0 1
2 1 1 1 1 -0 -1 -0 -0 -0 -0 -0 0 1 0 1 1 0 1 -0 -1 -1 -2 -1 -1 -1 0 1 2 0 1 2 1 1 1 -1 -1 -1 -0 0 1 1 1
2 1 1 1 1 0 -0 -0 0 -0 0 1 1 1 1 0 1 1 1 1 1 1 0 -0 0 1 1 1 1 1 1 1 2 1 1 -1 -1 -0 -0 1 1 1 2
2 2 1 1 1 1 -0 -0 0 -0 -0 1 1 1 1 1 1 2 1 2 1 2 1 1 1 1 1 0 1 1 1 1 2 2 2 1 -1 -1 -0 0 1 2 2
2 2 2 2 1 1 1 0 -0 -0 -0 0 1 0 0 1 1 1 1 2 1 1 1 1 1 1 1 0 0 0 0 1 2 2 2 2 0 -1 -1 0 1 1 2
2 2 1 1 1 1 1 0 0 -0 -0 0 1 1 0 1 1 1 1 2 2 2 2 1 1 1 1 1 0 -0 -0 1 1 2 2 3 1 -1 -0 0 1 1 1
2 2 1 1 1 1 1 0 0 -0 -0 1 1 1 1 1 1 2 2 2 2 2 2 1 1 1 1 0 0 0 -0 1 1 2 3 3 3 1 0 0 0 0 1
2 1 1 1 1 1 1 1 0 0 0 0 1 1 1 1 1 2 2 2 2 2 1 1 1 1 1 1 1 0 0 1 2 2 3 3 4 3 2 0 0 0 1
1 1 1 1 1 1 1 1 1 1 0 1 1 1 1 1 1 1 2 2 2 2 2 1 1 2 1 1 1 1 1 2 2 2 3 4 4 3 3 2 1 1 1
2 1 1 1 1 1 1 1 1 1 0 0 1 1 1 1 1 1 2 2 2 2 2 1 1 1 2 1 1 2 2 2 2 3 4 3 4 4 4 4 4 5 3
2 2 2 1 1 1 1 1 2 2 1 1 0 1 1 1 0 1 1 1 2 3 2 1 1 2 2 1 2 2 3 3 3 3 3 4 4 4 4 4 5 5 5
2 2 2 2 1 1 1 1 1 1 1 1 0 1 1 1 1 1 1 1 1 2 2 2 2 2 3 1 3 3 5 5 4 4 4 3 4 4 4 5 5 5 6
2 2 2 2 1 1 1 1 1 1 2 2 2 1 1 1 1 1 1 1 1 1 2 1 2 3 4 2 1 3 6 8 6 4 4 4 4 4 5 5 5 6 6
3 2 2 2 1 1 1 1 2 2 3 2 1 1 1 1 1 1 1 1 1 1 1 2 2 2 3 3 3 2 2 3 6 7 5 5 5 5 5 5 6 6 6
5 4 2 2 1 1 1 1 2 2 2 1 1 1 1 1 0 1 1 2 2 1 1 1 2 2 2 2 3 4 3 2 3 4 6 4 5 5 5 5 5 6 6
5 3 3 2 2 1 1 1 1 2 2 2 2 2 1 1 1 1 1 1 1 2 1 1 1 2 2 1 1 2 3 5 4 4 5 4 4 3 4 5 5 6 7

GFSSE_con_lsi_141.txt.gz
Lid_Strength_Index
1 -0 -1 -1 -2 -2 -2 -2 -2 -2 -2 -2 -2 -2 -2 -3 -3 -2 -3 -2 -2 -2 -2 -2 -2 -2 -2 -2 -2 -2 -2 -2 -2 -2 -2 -2 -2 -2 -2 -2 -2 -1 -2
-0 -1 -1 -2 -2 -2 -2 -2 -2 -2 -2 -2 -2 -3 -2 -2 -2 -2 -2 -3 -2 -2 -2 -2 -2 -2 -2 -2 -2 -2 -2 -2 -2 -2 -2 -2 -2 -2 -2 -2 -2 -1 -2
-0 -1 -1 -1 -2 -2 -2 -2 -2 -2 -2 -2 -2 -2 -2 -2 -2 -2 -2 -3 -2 -2 -2 -2 -2 -2 -2 -2 -2 -2 -2 -2 -1 -2 -2 -1 -1 -2 -2 -2 -2 -2 -2
-0 -1 -1 -1 -2 -2 -2 -2 -2 -2 -2 -2 -2 -2 -2 -2 -2 -2 -2 -3 -2 -2 -2 -2 -2 -2 -2 -2 -2 -2 -2 -2 -2 -2 -1 -1 -1 -2 -2 -2 -2 -2 -2
-0 -1 -1 -1 -2 -2 -2 -2 -2 -3 -3 -2 -2 -2 -2 -2 -2 -2 -2 -3 -2 -2 -2 -2 -2 -2 -2 -2 -2 -2 -2 -2 -2 -1 -1 -1 -1 -1 -2 -1 -1 -1 -1
-0 -0 -1 -1 -2 -2 -2 -2 -3 -3 -3 -2 -2 -2 -2 -2 -2 -2 -3 -3 -2 -2 -2 -2 -2 -2 -2 -2 -2 -2 -2 -2 -1 -1 -1 -1 -1 -2 -2 -1 -1 -1 -1
-0 -0 -1 -1 -1 -2 -2 -2 -2 -2 -3 -2 -2 -2 -2 -2 -2 -3 -2 -2 -2 -2 -2 -2 -2 -2 -2 -2 -2 -2 -2 -2 -1 -1 -1 -1 -1 -1 -2 -1 -1 -1 -1
0 -1 -1 0 -1 -1 -2 -2 -2 -2 -2 -2 -2 -2 -2 -2 -2 -3 -2 -2 -2 -2 -2 -2 -2 -2 -2 -2 -2 -2 -2 -1 -0 -0 -1 -1 -2 -1 -1 -1 -1 -0 -0
-0 -0 -0 -0 -0 0 -0 -1 -2 -2 -2 -2 -3 -2 -2 -1 -2 -3 -2 -2 -2 -2 -2 -2 -2 -1 -1 -1 -1 -1 -1 -1 0 -0 -1 -1 -2 -1 -1 -1 -0 0 -0
0 -0 -0 -0 -0 -0 -0 0 -0 -1 -2 -2 -2 -1 -1 -1 -1 -1 -1 -1 -2 -2 -1 -1 -1 -1 -1 -0 -1 -1 -0 -1 0 0 -0 0 -1 -0 -0 0 0 0 1
1 1 0 -0 -0 -0 -0 1 1 -0 -1 -1 -0 0 1 1 1 1 0 -1 -2 -2 -1 -1 -1 -2 -1 -0 -0 0 0 2 1 1 1 -1 -1 -1 0 0 1 1 1
2 2 1 0 0 -0 -1 0 0 -0 0 0 1 1 1 1 1 1 1 0 -1 -1 -2 -1 -1 -1 -0 2 2 0 2 2 2 2 1 -1 -1 -0 0 1 1 2 2
2 3 2 1 1 0 -0 -0 0 0 1 1 2 2 2 1 2 1 2 1 1 1 1 -0 0 1 1 1 0 2 2 2 2 2 1 -1 -1 -0 -0 0 1 2 2
3 2 2 1 1 0 -0 -0 0 0 1 1 2 2 2 2 2 2 2 2 2 1 2 2 2 2 2 1 1 1 2 2 2 3 3 1 -1 -1 -1 -0 1 1 2
2 2 3 2 1 0 0 0 0 0 0 0 1 1 2 2 2 2 2 2 2 2 3 2 2 2 2 1 1 1 1 1 2 3 3 2 1 -1 -1 -0 0 1 1
2 3 2 2 2 1 1 1 0 0 0 1 1 1 1 1 2 2 2 2 2 2 2 2 2 2 1 1 1 0 -0 1 2 3 3 3 1 0 -0 -0 -0 0 0
2 2 2 2 2 1 1 1 1 0 0 1 1 1 1 1 2 1 2 2 2 2 3 3 2 2 2 1 1 1 -0 0 2 3 3 4 3 2 0 -0 -0 -0 -0
2 2 2 2 2 2 1 1 1 1 1 0 1 2 1 1 2 2 2 3 2 3 3 3 2 2 2 2 2 1 0 1 2 3 4 4 4 4 2 0 -0 -0 -0
2 2 2 2 2 2 2 1 1 1 1 0 1 1 2 2 2 2 3 3 2 3 3 2 2 2 2 2 1 1 1 2 2 3 4 4 5 4 4 2 1 1 0
2 1 1 1 2 2 1 2 2 2 1 1 1 1 2 2 2 2 2 3 2 3 3 3 2 2 2 3 2 2 1 2 3 3 4 4 4 4 4 5 5 4 2
2 2 1 1 2 2 2 2 2 2 2 2 1 1 1 2 2 2 2 2 3 3 2 2 3 2 3 3 2 3 2 2 3 3 3 4 4 4 5 5 5 6 5
2 2 2 2 1 2 2 1 1 1 1 1 1 1 1 1 2 2 2 2 2 3 2 2 3 3 2 3 4 4 5 5 5 4 4 3 4 4 5 5 5 6 6
3 2 2 2 1 1 1 1 1 2 2 2 2 2 2 2 2 2 2 2 3 2 3 2 2 3 3 4 3 4 7 8 7 5 5 4 4 5 5 5 5 6 6
3 2 2 2 2 1 1 2 2 2 3 2 1 1 1 2 2 2 2 2 2 2 2 2 1 2 3 3 4 3 4 6 7 7 5 5 5 5 5 5 6 6 6
4 3 2 2 2 1 1 1 2 2 2 1 1 1 1 1 1 2 2 2 2 2 2 2 2 3 2 3 4 5 4 4 4 4 6 6 5 5 5 5 5 5 6
7 6 4 3 2 2 2 1 2 2 2 2 2 2 2 1 1 1 2 2 2 2 2 2 2 2 2 2 2 3 4 4 4 4 5 5 5 5 5 5 6 5 5

GFSSE_con_lsi_144.txt.gz
Lid_Strength_Index
1 -0 -1 -1 -1 -1 -2 -2 -2 -2 -2 -2 -2 -2 -2 -2 -2 -2 -2 -2 -2 -2 -2 -2 -2 -2 -2 -2 -2 -2 -2 -2 -1 -1 -2 -2 -2 -2 -2 -2 -2 -1 -2
-0 -0 -1 -2 -1 -2 -2 -2 -2 -2 -2 -2 -2 -2 -2 -2 -2 -2 -2 -2 -2 -2 -2 -2 -2 -2 -2 -2 -2 -1 -1 -2 -2 -2 -2 -2 -2 -2 -2 -2 -2 -1 -2
-0 -1 -1 -1 -2 -2 -2 -2 -2 -2 -3 -2 -2 -2 -2 -2 -2 -2 -2 -2 -2 -2 -2 -2 -2 -2 -2 -1 -1 -2 -2 -2 -2 -2 -2 -1 -1 -2 -2 -2 -2 -2 -2
-0 -1 -1 -1 -2 -2 -2 -2 -2 -2 -2 -2 -2 -2 -2 -2 -2 -2 -2 -2 -2 -2 -2 -2 -2 -2 -2 -1 -1 -1 -2 -2 -2 -2 -1 -1 -0 -2 -2 -2 -2 -2 -2
-0 -1 -1 -1 -2 -2 -2 -2 -2 -2 -2 -2 -2 -2 -2 -2 -2 -2 -2 -2 -2 -2 -2 -2 -2 -2 -2 -2 -2 -2 -2 -2 -2 -1 -1 -0 1 -1 -2 -1 -1 -1 -1
-0 -0 -1 -1 -2 -2 -2 -2 -3 -2 -2 -2 -2 -2 -2 -2 -2 -2 -2 -2 -2 -2 -2 -2 -2 -2 -2 -2 -2 -2 -2 -2 -2 -1 -1 -1 -0 -1 -1 -1 -1 -1 -0
0 -0 -1 -1 -1 -2 -2 -2 -2 -2 -2 -2 -2 -2 -2 -2 -2 -2 -2 -2 -2 -2 -2 -2 -2 -1 -2 -2 -2 -2 -2 -2 -0 -0 -0 -0 -0 -1 -1 -1 -0 -0 -0
0 -0 -1 0 -1 -1 -2 -2 -2 -2 -2 -3 -2 -3 -2 -2 -2 -2 -2 -2 -2 -2 -2 -1 -1 -1 -1 -2 -2 -2 -2 -1 -0 0 -0 -1 -2 -1 -0 -0 0 0 0
-0 -0 -0 -0 -0 0 -1 -1 -2 -2 -2 -3 -3 -2 -2 -2 -3 -3 -2 -2 -2 -2 -2 -1 -1 -1 -1 -1 -1 -1 -1 -1 1 0 -0 0 -1 -0 0 0 1 0 1
-0 -0 -0 -0 -0 -0 0 0 -0 -1 -1 -2 -2 -2 -1 -1 -1 -2 -1 -2 -2 -2 -2 -1 -1 -1 -0 0 -0 -0 -0 -0 1 1 0 1 -1 0 1 1 1 1 1
1 0 0 -0 -0 0 0 0 1 0 -0 -1 -1 -0 1 1 1 1 0 -1 -2 -2 -1 -1 -1 -1 -1 -0 -0 0 1 2 2 2 2 -1 -1 -0 1 1 1 1 2
2 1 0 0 -0 -0 -0 0 0 -0 0 0 1 1 2 2 2 1 2 1 -1 -1 -2 -1 -1 -1 -0 2 2 1 3 3 2 2 2 -1 -0 -0 -0 1 1 2 2
3 2 1 0 -0 -0 0 1 1 1 1 1 2 2 2 2 3 2 2 2 1 1 1 -0 0 1 1 2 1 2 3 3 3 3 2 -1 -1 -1 -0 0 1 1 2
4 3 2 1 1 -0 -0 0 1 1 1 1 2 2 2 3 3 3 2 2 2 2 2 2 2 2 2 2 1 2 3 3 3 3 3 1 -1 -1 -1 -0 0 1 1
3 3 3 2 1 0 1 0 1 1 1 1 2 2 2 2 2 2 2 2 2 2 2 3 3 2 3 2 1 2 2 2 3 3 4 3 1 0 -1 -0 0 0 1
3 3 3 3 1 1 1 1 1 1 1 1 2 1 2 2 2 2 2 2 3 3 3 3 3 3 2 2 1 1 1 1 3 3 3 4 2 1 -0 -1 -1 -0 -0
2 2 2 3 2 1 1 1 1 1 1 1 1 2 2 2 2 2 2 3 3 3 2 3 3 3 3 2 2 1 1 1 2 3 4 4 4 2 1 -1 -1 -0 -1
2 2 1 2 2 1 1 1 1 1 1 1 1 1 2 2 2 2 3 3 2 2 2 3 3 3 3 3 3 2 2 2 2 3 4 4 4 4 3 0 -0 -0 -1
2 1 1 2 2 2 1 1 1 1 1 1 1 1 2 1 2 2 2 2 3 3 3 3 3 3 3 3 3 3 2 3 2 2 4 4 5 5 4 3 1 1 -0
2 2 1 1 2 2 2 1 1 1 1 1 1 1 1 1 2 2 3 3 2 3 3 4 3 3 3 3 2 3 2 2 3 4 3 4 5 5 5 5 5 4 2
2 2 2 2 2 2 2 3 2 2 2 2 1 1 2 2 2 2 2 2 3 3 3 3 3 3 3 3 4 3 3 3 3 3 3 4 4 4 5 5 5 5 5
2 2 2 2 1 2 2 2 2 1 1 1 1 1 2 2 3 3 2 3 3 3 4 3 3 3 3 4 4 4 5 6 5 4 3 3 3 4 5 5 5 5 5
3 2 2 2 2 1 1 1 2 2 3 2 2 1 2 2 2 3 3 3 3 3 3 3 3 3 3 4 4 4 8 9 7 6 6 5 4 5 4 5 5 5 5
3 2 2 2 2 1 1 1 2 2 3 2 1 1 1 1 2 2 3 3 3 3 3 3 3 3 3 3 5 3 4 6 8 8 6 6 6 5 5 5 5 5 5
6 4 3 2 2 1 1 1 2 2 2 1 2 2 1 2 2 2 2 3 3 3 3 3 3 3 3 3 4 6 3 4 6 6 6 6 6 6 5 4 4 4 5
7 7 4 3 3 2 2 1 2 2 2 2 2 2 2 2 2 2 2 2 2 2 2 2 3 3 3 3 3 3 5 6 5 5 5 4 5 5 5 5 6 5 5

GFSSE_con_lsi_147.txt.gz
Lid_Strength_Index
1 -0 -1 -1 -1 -1 -1 -1 -2 -2 -2 -2 -2 -2 -2 -2 -2 -2 -2 -2 -2 -2 -2 -2 -2 -2 -2 -2 -2 -1 -1 -2 -2 -2 -2 -2 -2 -2 -2 -2 -2 -1 -2
0 -0 -1 -1 -1 -1 -1 -2 -2 -2 -2 -2 -3 -2 -2 -2 -2 -2 -2 -2 -2 -2 -2 -2 -2 -2 -2 -1 -1 -1 -2 -2 -2 -2 -2 -2 -2 -2 -2 -2 -2 -1 -2
0 -0 -1 -1 -1 -1 -2 -2 -2 -2 -2 -2 -1 -2 -2 -2 -2 -2 -2 -2 -2 -2 -2 -2 -2 -2 -1 -1 -1 -1 -2 -2 -2 -2 -2 0 0 -2 -2 -2 -2 -2 -2
-0 -0 -0 -1 -2 -1 -2 -2 -2 -2 -2 -2 -2 -2 -2 -2 -2 -2 -2 -2 -2 -2 -2 -2 -2 -2 -1 -1 -1 -1 -2 -2 -2 -2 0 1 0 -1 -2 -2 -2 -2 -2
-0 -0 -0 -1 -2 -2 -2 -2 -2 -2 -2 -2 -2 -2 -2 -2 -2 -2 -2 -2 -2 -2 -2 -2 -2 -1 -1 -2 -2 -2 -2 -2 -2 -1 1 2 2 -1 -1 -1 -1 -1 -1
0 -0 -1 -1 -2 -2 -2 -2 -2 -2 -2 -2 -2 -2 -2 -2 -2 -2 -2 -2 -2 -2 -2 -2 -2 -1 -1 -1 -1 -1 -2 -2 -1 0 1 0 1 -1 -1 -1 -0 -0 -0
1 0 -0 -1 -2 -2 -2 -2 -2 -2 -2 -2 -2 -2 -2 -2 -2 -2 -2 -2 -2 -2 -2 -2 -1 -1 -1 -1 -1 -1 -2 -2 0 1 1 0 0 -0 -0 -0 -0 -0 -0
0 -0 -0 0 -1 -1 -2 -2 -2 -2 -2 -2 -3 -3 -2 -2 -2 -2 -2 -2 -2 -2 -2 -1 -1 -1 -1 -1 -1 -1 -2 -1 0 1 1 1 -1 0 -0 0 0 1 1
-0 -0 -0 -0 0 0 -1 -1 -2 -2 -2 -2 -3 -3 -2 -2 -2 -2 -3 -2 -2 -2 -1 -1 -1 -1 -1 -1 -1 -1 -1 -0 2 2 1 2 -1 -0 0 1 1 1 1
0 -0 0 -0 0 0 0 0 -0 -1 -1 -2 -2 -2 -1 -1 -2 -2 -1 -2 -2 -2 -1 -1 -1 -1 -0 -0 -0 -1 -0 -0 2 2 2 2 -1 0 1 1 1 1 2
1 0 0 0 0 0 0 1 1 0 -0 -1 -1 -0 1 1 1 0 0 -1 -2 -2 -2 -1 -1 -1 -1 -0 -0 0 1 2 3 3 2 -1 -1 -1 1 1 2 2 2
2 1 0 0 0 0 -0 0 1 0 0 0 1 1 1 2 2 1 2 0 -1 -1 -2 -1 -2 -1 -0 2 3 2 3 3 3 3 3 -1 -1 -1 0 1 1 2 2
2 1 1 0 0 0 0 1 1 1 1 1 2 2 2 2 3 2 3 2 1 1 1 0 0 1 2 2 3 3 3 3 3 3 2 -0 -1 -1 -1 0 1 1 2
3 2 1 1 1 0 0 1 1 1 2 2 2 2 3 3 4 3 3 3 3 2 2 2 2 2 2 2 2 2 2 4 4 4 3 1 -1 -1 -0 -0 0 0 1
3 3 2 1 1 0 0 1 1 1 1 1 2 2 3 3 4 4 3 3 3 2 3 3 3 3 3 3 3 2 3 3 4 4 4 3 1 -0 -1 -1 -0 -0 0
3 3 3 2 1 1 1 0 1 1 1 2 2 2 2 3 3 3 3 3 3 3 3 3 3 3 3 3 2 2 2 2 3 4 4 4 1 1 0 -1 -1 -1 -1
2 2 3 3 2 1 1 1 1 1 1 1 2 2 2 2 3 3 3 2 2 3 3 3 3 3 3 3 3 2 2 2 2 3 4 4 4 2 1 0 -1 -1 -1
2 2 2 2 3 2 1 1 1 1 1 1 1 2 2 2 2 3 3 3 3 3 3 3 3 3 3 4 4 3 2 2 2 3 4 4 4 4 3 1 0 -1 -1
2 2 2 2 2 3 1 1 1 1 1 1 1 1 2 2 2 2 2 2 3 3 3 3 4 3 3 3 3 3 3 3 3 2 4 4 4 4 4 3 1 1 -1
2 2 2 1 1 2 2 1 1 2 2 1 1 1 2 2 2 2 2 2 2 3 3 4 3 4 3 3 3 3 3 2 3 3 3 4 4 4 4 5 5 4 2
2 2 2 2 1 2 3 3 2 2 2 2 1 2 2 2 3 3 3 3 3 3 3 3 3 4 4 4 4 4 4 3 3 3 4 4 4 4 5 5 5 5 4
2 2 2 2 2 2 1 2 2 2 2 1 1 1 1 2 2 3 3 3 4 3 3 3 4 4 3 4 5 6 5 5 5 3 4 3 3 4 5 5 5 5 5
4 2 2 1 2 2 1 2 2 2 3 2 2 2 1 1 2 2 2 3 4 4 4 4 4 4 5 5 4 5 7 8 9 7 7 5 4 5 4 5 5 4 4
6 3 2 2 1 2 1 2 2 2 3 2 1 1 1 2 2 2 2 3 3 4 4 4 4 5 5 5 6 3 3 7 8 8 6 6 7 6 6 6 4 4 5
7 5 2 2 2 2 2 2 2 2 2 1 2 2 2 2 2 2 2 2 3 3 3 4 4 5 4 4 4 6 4 4 7 5 6 5 6 7 6 5 5 5 5
8 8 6 3 3 3 2 2 2 2 2 2 2 2 2 2 2 2 2 2 2 3 3 3 3 4 4 4 4 4 5 6 5 5 6 5 5 5 5 5 6 5 5